Regional Weather Roundup
Issued by NWS

Home | Current Version | Previous Version | Text Only | Print | Product List | Glossary On
Versions: 1 2 3 4 5 6 7 8 9 10 11 12 13 14 15 16 17 18 19 20 21 22 23 24 25 26 27 28 29 30 31 32 33 34 35 36 37 38 39 40 41 42 43 44 45 46 47 48 49 50
000
ASUS42 KFFC 081603
RWRGA
WEATHER ROUNDUP FOR GEORGIA
NATIONAL WEATHER SERVICE PEACHTREE CITY GA
1100 AM EST THU DEC 08 2016

NOTE: "FAIR" INDICATES FEW OR NO CLOUDS BELOW 12,000 FEET WITH NO
SIGNIFICANT WEATHER AND/OR OBSTRUCTIONS TO VISIBILITY.

* = USE WITH CAUTION. THE STATIONS MARKED WITH AN ASTERISK MAY NOT
REPORT WEATHER SUCH AS PRECIPITATION, FOG, OR THUNDER AND ARE NOT
QUALITY CONTROLLED BY NWS.

THE REMARK "TC" DENOTES TEMPERATURE READING IN DEGREES CELSIUS.

GAZ001>058-081700-
NORTH GEORGIA

CITY           SKY/WX    TMP DP  RH WIND       PRES   REMARKS
ATLANTA        CLOUDY    45  27  49 NW16G23   30.26R
ATHENS         MOSUNNY   48  37  65 NW9G17    30.21R
CHAMBLEE       CLOUDY    44  23  43 NW14      30.27R
PEACHTREE CITY CLOUDY    50  26  39 N18G25    30.28R
ROME           CLOUDY    43  21  41 N13       30.33R
WEST ATLANTA   CLOUDY    44  25  47 NW15G22   30.29R
GAINESVILLE    CLOUDY    45  22  40 NW14      30.23R
CARTERSVILLE   CLOUDY    43  19  38 N10       30.32R


CITY           SKY/WX    TMP DP  RH WIND       PRES   REMARKS
DALTON*        PTSUNNY   41  27  56 N16       30.32R
LAWRENCEVILLE* SUNNY     45  27  49 W14       30.25R
MARIETTA       PTSUNNY   44  22  42 NW12      30.27R
KENNESAW*      PTSUNNY   43  21  42 N12G21    30.33R
CANTON*        CLOUDY    43  14  31 NW8G20    30.27R
$$

GAZ059>098-102>109-081700-
CENTRAL GEORGIA

CITY           SKY/WX    TMP DP  RH WIND       PRES   REMARKS
AUGUSTA-BUSH   PTSUNNY   58  42  55 NW10      30.16S
AUGUSTA-DANIEL CLOUDY    55  40  56 NW13G18   30.17R
COLUMBUS       SUNNY     51  32  48 N13       30.27R
MACON          SUNNY     55  34  45 N17       30.22S
ROBINS AFB     SUNNY     55  36  50 N13       30.21S


CITY           SKY/WX    TMP DP  RH WIND       PRES   REMARKS
LAGRANGE*      SUNNY     50  33  51 N12G20    30.29S
SYLVANIA*      SUNNY    N/A N/A N/A NW7       30.17S
MILLEDGEVILLE* MOSUNNY   52  43  71 W7        30.21F
$$

GAZ099>101-110>166-081700-
SOUTH GEORGIA

CITY           SKY/WX    TMP DP  RH WIND       PRES   REMARKS
SAVANNAH       PTSUNNY   59  43  55 W14       30.16S
VALDOSTA       MOSUNNY   56  51  84 VRB6      30.21F
ALMA           SUNNY     57  42  57 NW13      30.20S
ST SIMONS      PTSUNNY   56  47  71 W12       30.19R
FT STEWART     SUNNY     57  42  57 W9        30.16S
ALBANY         MOSUNNY   56  40  55 N10G17    30.27R
HUNTER AFB     SUNNY     59  51  73 W13       30.13S
MOODY AFB      SUNNY     57  46  68 VRB6      30.20S
BRUNSWICK      CLOUDY    55  52  88 W12       30.20S


CITY           SKY/WX    TMP DP  RH WIND       PRES   REMARKS
BAINBRIDGE*    MOSUNNY   55  45  67 NW7       30.26R
MOULTRIE*      MOSUNNY   55  46  71 N5        30.23S
VIDALIA*       SUNNY     55  45  67 W8        30.20S
WAYCROSS*      MOSUNNY   60  53  76 NW9       30.20F
DOUGLAS*       SUNNY     55  43  62 N9        30.22F
$$




USA.gov is the U.S. government's official web portal to all federal, state and local government web resources and services.